| time (UTC) | temp C | wind direction | speed KPH | gust KPH | rain 1hr cm | rain 24hr cm | rain mn cm | humidity % | barometer mb |
| 20260906145351 | 20 | 192 | 1.6 | 6.4 | 0.00 | 0.00 | 0.00 | 92 | 1058.4 |
| 20260906144846 | 20 | 208 | 4.8 | 4.8 | 0.00 | 0.00 | 0.00 | 92 | 1058.4 |
| 20260906144341 | 20 | 208 | 4.8 | 4.8 | 0.00 | 0.00 | 0.00 | 92 | 1058.4 |
| 20260906143840 | 20 | 224 | 0.0 | 1.6 | 0.00 | 0.00 | 0.00 | 93 | 1058.4 |
| 20260906143336 | 20 | 82 | 6.4 | 6.4 | 0.00 | 0.00 | 0.00 | 93 | 1058.4 |
| 20260906142832 | 21 | 113 | 8.0 | 9.7 | 0.00 | 0.00 | 0.00 | 92 | 1058.4 |
| 20260906142326 | 20 | 134 | 1.6 | 4.8 | 0.00 | 0.00 | 0.00 | 93 | 1058.5 |
| 20260906141821 | 20 | 222 | 0.0 | 1.6 | 0.00 | 0.00 | 0.00 | 93 | 1058.2 |
| 20260906141316 | 20 | 59 | 8.0 | 9.7 | 0.00 | 0.00 | 0.00 | 93 | 1058.1 |
| 20260906140814 | 20 | 297 | 1.6 | 3.2 | 0.00 | 0.00 | 0.00 | 94 | 1058.3 |
| 20260906140310 | 20 | 251 | 1.6 | 3.2 | 0.00 | 0.00 | 0.00 | 95 | 1057.9 |
| 20260906135807 | 20 | 130 | 1.6 | 6.4 | 0.00 | 0.00 | 0.00 | 95 | 1058.3 |
| 20260906135305 | 20 | 215 | 1.6 | 1.6 | 0.00 | 0.00 | 0.00 | 95 | 1058.3 |
| 20260906134758 | 20 | 220 | 3.2 | 3.2 | 0.00 | 0.00 | 0.00 | 94 | 1058.5 |
| 20260906134252 | 20 | 297 | 4.8 | 6.4 | 0.00 | 0.00 | 0.00 | 98 | 1058.4 |
| 20260906133748 | 20 | 297 | 4.8 | 6.4 | 0.00 | 0.00 | 0.00 | 98 | 1058.6 |
| 20260906133244 | 20 | 297 | 4.8 | 6.4 | 0.00 | 0.00 | 0.00 | 98 | 1058.3 |
| 20260906132738 | 20 | 297 | 4.8 | 6.4 | 0.00 | 0.00 | 0.00 | 98 | 1058.3 |
| 20260906132233 | 20 | 297 | 4.8 | 6.4 | 0.00 | 0.00 | 0.00 | 98 | 1058.3 |
| 20260906131729 | 20 | 297 | 4.8 | 6.4 | 0.00 | 0.00 | 0.00 | 98 | 1058.1 |
| 20260906131224 | 20 | 297 | 4.8 | 6.4 | 0.00 | 0.00 | 0.00 | 98 | 1058.2 |
| 20260906130720 | 20 | 297 | 4.8 | 6.4 | 0.00 | 0.00 | 0.00 | 98 | 1057.8 |
| 20260906130214 | 20 | 297 | 4.8 | 6.4 | 0.00 | 0.00 | 0.00 | 98 | 1057.7 |
| 20260906125713 | 20 | 297 | 4.8 | 6.4 | 0.00 | 0.00 | 0.00 | 98 | 1057.9 |
| 20260906125211 | 20 | 297 | 4.8 | 6.4 | 0.00 | 0.00 | 0.00 | 98 | 1057.9 |
| 20260906124707 | 20 | 297 | 4.8 | 6.4 | 0.00 | 0.00 | 0.00 | 98 | 1057.7 |
| 20260906124202 | 19 | 81 | 4.8 | 4.8 | 0.00 | 0.00 | 0.00 | 98 | 1057.8 |
| 20260906123700 | 19 | 36 | 4.8 | 4.8 | 0.00 | 0.00 | 0.00 | 99 | 1057.7 |
| 20260906123156 | 19 | 36 | 4.8 | 4.8 | 0.00 | 0.00 | 0.00 | 99 | 1057.4 |
| 20260906122655 | 19 | 36 | 4.8 | 4.8 | 0.00 | 0.00 | 0.00 | 99 | 1057.3 |
| 20260906122151 | 19 | 36 | 4.8 | 4.8 | 0.00 | 0.00 | 0.00 | 99 | 1057.2 |
| 20260906121647 | 19 | 218 | 0.0 | 0.0 | 0.00 | 0.00 | 0.00 | 99 | 1057.1 |
| 20260906121143 | 19 | 218 | 0.0 | 0.0 | 0.00 | 0.00 | 0.00 | 99 | 1057.0 |
| 20260906120639 | 19 | 30 | 4.8 | 4.8 | 0.00 | 0.00 | 0.00 | 99 | 1057.1 |
| 20260906120136 | 19 | 30 | 4.8 | 4.8 | 0.00 | 0.00 | 0.00 | 99 | 1056.8 |
| 20260906115636 | 19 | 31 | 3.2 | 3.2 | 0.00 | 0.00 | 0.00 | 99 | 1057.1 |
| 20260906115132 | 19 | 152 | 4.8 | 4.8 | 0.00 | 0.00 | 0.00 | 99 | 1057.0 |
| 20260906114631 | 19 | 20 | 1.6 | 1.6 | 0.00 | 0.00 | 0.00 | 99 | 1057.0 |
| 20260906114126 | 19 | 20 | 1.6 | 1.6 | 0.00 | 0.00 | 0.00 | 99 | 1057.0 |
| 20260906113621 | 19 | 20 | 1.6 | 1.6 | 0.00 | 0.00 | 0.00 | 99 | 1056.9 |
| 20260906113121 | 19 | 20 | 1.6 | 1.6 | 0.00 | 0.00 | 0.00 | 99 | 1057.2 |
| 20260906112620 | 19 | 79 | 3.2 | 4.8 | 0.00 | 0.00 | 0.00 | 99 | 1057.1 |
| 20260906112117 | 19 | 199 | 1.6 | 6.4 | 0.00 | 0.00 | 0.00 | 99 | 1056.9 |
| 20260906111616 | 19 | 200 | 3.2 | 4.8 | 0.00 | 0.00 | 0.00 | 99 | 1057.0 |
| 20260906111111 | 19 | 177 | 3.2 | 6.4 | 0.00 | 0.00 | 0.00 | 99 | 1056.9 |
| 20260906110606 | 19 | 195 | 1.6 | 3.2 | 0.00 | 0.00 | 0.00 | 99 | 1057.2 |
| 20260906110106 | 19 | 237 | 0.0 | 1.6 | 0.00 | 0.00 | 0.00 | 99 | 1056.9 |
| 20260906105600 | 18 | 47 | 1.6 | 3.2 | 0.00 | 0.00 | 0.00 | 99 | 1057.1 |
| 20260906105056 | 18 | 224 | 0.0 | 0.0 | 0.00 | 0.00 | 0.00 | 99 | 1057.1 |
| 20260906104555 | 18 | 238 | 0.0 | 1.6 | 0.00 | 0.00 | 0.00 | 99 | 1056.9 |
| 20260906104049 | 18 | 239 | 0.0 | 1.6 | 0.00 | 0.00 | 0.00 | 99 | 1057.0 |
| 20260906103547 | 18 | 268 | 1.6 | 3.2 | 0.00 | 0.00 | 0.00 | 99 | 1056.9 |
| 20260906103043 | 18 | 247 | 0.0 | 0.0 | 0.00 | 0.00 | 0.00 | 99 | 1057.0 |
| 20260906102543 | 18 | 308 | 0.0 | 1.6 | 0.00 | 0.00 | 0.00 | 99 | 1056.7 |
| 20260906102038 | 18 | 49 | 1.6 | 3.2 | 0.00 | 0.00 | 0.00 | 99 | 1056.6 |
| 20260906101532 | 18 | 187 | 0.0 | 3.2 | 0.00 | 0.00 | 0.00 | 99 | 1056.7 |
| 20260906101027 | 18 | 62 | 1.6 | 3.2 | 0.00 | 0.00 | 0.00 | 99 | 1056.7 |
| 20260906100523 | 18 | 211 | 1.6 | 3.2 | 0.00 | 0.00 | 0.00 | 99 | 1056.5 |
| 20260906100018 | 18 | 259 | 0.0 | 3.2 | 0.00 | 0.00 | 0.00 | 99 | 1056.6 |
| 20260906095513 | 18 | 204 | 0.0 | 1.6 | 0.00 | 0.00 | 0.00 | 99 | 1056.5 |
| 20260906095008 | 18 | 274 | 0.0 | 0.0 | 0.00 | 0.00 | 0.00 | 99 | 1056.6 |
| 20260906094507 | 18 | 238 | 0.0 | 1.6 | 0.00 | 0.00 | 0.00 | 99 | 1056.5 |
| 20260906094003 | 18 | 213 | 0.0 | 1.6 | 0.00 | 0.00 | 0.00 | 99 | 1056.5 |
| 20260906093459 | 18 | 212 | 0.0 | 1.6 | 0.00 | 0.00 | 0.00 | 98 | 1056.5 |
| 20260906092953 | 19 | 238 | 0.0 | 1.6 | 0.00 | 0.00 | 0.00 | 98 | 1056.4 |
| 20260906092453 | 19 | 225 | 0.0 | 0.0 | 0.00 | 0.00 | 0.00 | 98 | 1056.5 |
| 20260906091948 | 19 | 227 | 0.0 | 1.6 | 0.00 | 0.00 | 0.00 | 98 | 1056.5 |
| 20260906091444 | 19 | 227 | 0.0 | 0.0 | 0.00 | 0.00 | 0.00 | 97 | 1056.5 |
| 20260906090940 | 20 | 209 | 1.6 | 3.2 | 0.00 | 0.00 | 0.00 | 97 | 1056.3 |
| 20260906090436 | 20 | 237 | 0.0 | 3.2 | 0.00 | 0.00 | 0.00 | 97 | 1056.2 |
| 20260906085930 | 20 | 223 | 0.0 | 1.6 | 0.00 | 0.00 | 0.00 | 97 | 1056.1 |
| 20260906085430 | 20 | 179 | 3.2 | 4.8 | 0.00 | 0.00 | 0.00 | 97 | 1055.9 |
| 20260906084929 | 20 | 220 | 1.6 | 3.2 | 0.00 | 0.00 | 0.00 | 96 | 1055.8 |
| 20260906084424 | 20 | 10 | 3.2 | 4.8 | 0.00 | 0.00 | 0.00 | 96 | 1055.8 |
| 20260906083923 | 20 | 216 | 0.0 | 6.4 | 0.00 | 0.00 | 0.00 | 96 | 1055.7 |
| 20260906083418 | 20 | 81 | 6.4 | 9.7 | 0.00 | 0.00 | 0.00 | 96 | 1055.7 |
| 20260906082917 | 20 | 20 | 3.2 | 6.4 | 0.00 | 0.00 | 0.00 | 96 | 1055.8 |
| 20260906082413 | 20 | 302 | 3.2 | 4.8 | 0.00 | 0.00 | 0.00 | 96 | 1056.0 |
| 20260906081909 | 20 | 99 | 3.2 | 3.2 | 0.00 | 0.00 | 0.00 | 96 | 1055.9 |
| 20260906081404 | 20 | 74 | 4.8 | 4.8 | 0.00 | 0.00 | 0.00 | 96 | 1055.9 |
| 20260906080900 | 20 | 261 | 6.4 | 9.7 | 0.00 | 0.00 | 0.00 | 96 | 1055.8 |
| 20260906080357 | 20 | 101 | 3.2 | 9.7 | 0.00 | 0.00 | 0.00 | 96 | 1055.8 |
| 20260906075856 | 20 | 47 | 6.4 | 6.4 | 0.00 | 0.00 | 0.00 | 96 | 1055.8 |
| 20260906075350 | 20 | 220 | 3.2 | 6.4 | 0.00 | 0.00 | 0.00 | 95 | 1055.8 |
| 20260906074846 | 20 | 44 | 3.2 | 4.8 | 0.00 | 0.00 | 0.00 | 95 | 1055.8 |
| 20260906074345 | 20 | 157 | 1.6 | 6.4 | 0.00 | 0.00 | 0.00 | 95 | 1056.0 |
| 20260906073844 | 20 | 143 | 3.2 | 4.8 | 0.00 | 0.00 | 0.00 | 95 | 1056.1 |
| 20260906073339 | 21 | 343 | 1.6 | 4.8 | 0.00 | 0.00 | 0.00 | 95 | 1056.1 |
| 20260906072836 | 21 | 126 | 3.2 | 6.4 | 0.00 | 0.00 | 0.00 | 94 | 1056.2 |
| 20260906072331 | 21 | 313 | 1.6 | 9.7 | 0.00 | 0.00 | 0.00 | 94 | 1056.2 |
| 20260906071827 | 21 | 245 | 3.2 | 4.8 | 0.00 | 0.00 | 0.00 | 94 | 1056.2 |
| 20260906071322 | 21 | 1 | 4.8 | 6.4 | 0.00 | 0.00 | 0.00 | 94 | 1056.1 |
| 20260906070818 | 21 | 89 | 1.6 | 11.3 | 0.00 | 0.00 | 0.00 | 94 | 1056.2 |
| 20260906070314 | 21 | 340 | 1.6 | 6.4 | 0.00 | 0.00 | 0.00 | 94 | 1056.4 |
| 20260906065813 | 21 | 52 | 6.4 | 9.7 | 0.00 | 0.00 | 0.00 | 94 | 1056.3 |
| 20260906065309 | 21 | 221 | 3.2 | 12.9 | 0.00 | 0.00 | 0.00 | 94 | 1056.3 |
| 20260906064804 | 21 | 16 | 3.2 | 6.4 | 0.00 | 0.00 | 0.00 | 94 | 1056.3 |
| 20260906064300 | 21 | 70 | 1.6 | 4.8 | 0.00 | 0.00 | 0.00 | 94 | 1056.5 |
| 20260906063755 | 21 | 38 | 6.4 | 12.9 | 0.00 | 0.00 | 0.00 | 94 | 1056.4 |
| 20260906063251 | 21 | 51 | 3.2 | 6.4 | 0.00 | 0.00 | 0.00 | 94 | 1056.3 |
| 20260906062746 | 21 | 94 | 4.8 | 9.7 | 0.00 | 0.00 | 0.00 | 94 | 1056.5 |
| 20260906062245 | 21 | 100 | 8.0 | 11.3 | 0.00 | 0.00 | 0.00 | 93 | 1056.5 |
| 20260906061741 | 21 | 36 | 3.2 | 6.4 | 0.00 | 0.00 | 0.00 | 93 | 1056.4 |
| 20260906061237 | 21 | 63 | 1.6 | 3.2 | 0.00 | 0.00 | 0.00 | 93 | 1056.4 |
| 20260906060731 | 21 | 64 | 6.4 | 6.4 | 0.00 | 0.00 | 0.00 | 93 | 1056.3 |
| 20260906060229 | 21 | 226 | 0.0 | 3.2 | 0.00 | 0.00 | 0.00 | 94 | 1056.5 |
| 20260906055725 | 21 | 33 | 3.2 | 4.8 | 0.00 | 0.00 | 0.00 | 94 | 1056.5 |
| 20260906055220 | 21 | 70 | 1.6 | 6.4 | 0.00 | 0.00 | 0.00 | 94 | 1056.4 |
| 20260906054716 | 21 | 312 | 1.6 | 6.4 | 0.00 | 0.00 | 0.00 | 94 | 1056.5 |
| 20260906054215 | 21 | 95 | 3.2 | 4.8 | 0.00 | 0.00 | 0.00 | 95 | 1056.6 |
| 20260906053712 | 21 | 72 | 3.2 | 4.8 | 0.00 | 0.00 | 0.00 | 95 | 1056.6 |
| 20260906053207 | 21 | 76 | 3.2 | 4.8 | 0.00 | 0.00 | 0.00 | 95 | 1056.7 |
| 20260906052702 | 21 | 357 | 1.6 | 3.2 | 0.00 | 0.00 | 0.00 | 95 | 1056.4 |
| 20260906052159 | 21 | 139 | 1.6 | 4.8 | 0.00 | 0.00 | 0.00 | 95 | 1056.4 |
| 20260906051655 | 21 | 56 | 3.2 | 4.8 | 0.00 | 0.00 | 0.00 | 95 | 1056.5 |
| 20260906051154 | 21 | 273 | 1.6 | 4.8 | 0.00 | 0.00 | 0.00 | 95 | 1056.4 |
| 20260906050650 | 22 | 81 | 4.8 | 6.4 | 0.00 | 0.00 | 0.00 | 95 | 1056.6 |
| 20260906050145 | 22 | 22 | 1.6 | 4.8 | 0.00 | 0.00 | 0.00 | 96 | 1056.5 |
| 20260906045643 | 22 | 262 | 1.6 | 4.8 | 0.00 | 0.00 | 0.00 | 96 | 1056.6 |
| 20260906045139 | 22 | 288 | 1.6 | 3.2 | 0.00 | 0.00 | 0.00 | 96 | 1056.6 |
| 20260906044635 | 22 | 121 | 4.8 | 11.3 | 0.00 | 0.00 | 0.00 | 96 | 1056.3 |
| 20260906044130 | 22 | 49 | 1.6 | 4.8 | 0.00 | 0.00 | 0.00 | 95 | 1056.3 |
| 20260906043626 | 22 | 157 | 1.6 | 1.6 | 0.00 | 0.00 | 0.00 | 95 | 1056.3 |
| 20260906043121 | 22 | 37 | 3.2 | 4.8 | 0.00 | 0.00 | 0.00 | 96 | 1056.2 |
| 20260906042621 | 22 | 55 | 1.6 | 3.2 | 0.00 | 0.00 | 0.00 | 96 | 1056.5 |
| 20260906042115 | 22 | 7 | 3.2 | 3.2 | 0.00 | 0.00 | 0.00 | 96 | 1056.3 |
| 20260906041611 | 22 | 252 | 1.6 | 3.2 | 0.00 | 0.00 | 0.00 | 96 | 1056.1 |
| 20260906041106 | 22 | 142 | 1.6 | 3.2 | 0.00 | 0.00 | 0.00 | 96 | 1056.2 |
| 20260906040601 | 22 | 102 | 4.8 | 4.8 | 0.00 | 0.00 | 0.00 | 96 | 1056.2 |
| 20260906040057 | 22 | 92 | 3.2 | 4.8 | 0.00 | 0.00 | 0.00 | 96 | 1056.4 |
| 20260906035552 | 22 | 37 | 3.2 | 4.8 | 0.00 | 0.00 | 0.00 | 95 | 1056.3 |
| 20260906035042 | 22 | 358 | 3.2 | 3.2 | 0.00 | 0.00 | 0.00 | 95 | 1056.1 |
| 20260906034542 | 22 | 271 | 0.0 | 1.6 | 0.00 | 0.00 | 0.00 | 95 | 1056.2 |
| 20260906034037 | 22 | 219 | 0.0 | 4.8 | 0.00 | 0.00 | 0.00 | 95 | 1056.1 |
| 20260906033532 | 22 | 166 | 1.6 | 1.6 | 0.00 | 0.00 | 0.00 | 95 | 1056.4 |
| 20260906033027 | 22 | 193 | 1.6 | 1.6 | 0.00 | 0.00 | 0.00 | 95 | 1056.3 |
| 20260906032524 | 22 | 212 | 0.0 | 4.8 | 0.00 | 0.00 | 0.00 | 94 | 1056.3 |
| 20260906032024 | 22 | 212 | 1.6 | 3.2 | 0.00 | 0.00 | 0.00 | 94 | 1056.3 |
| 20260906031520 | 22 | 315 | 1.6 | 1.6 | 0.00 | 0.00 | 0.00 | 95 | 1056.1 |
| 20260906031015 | 22 | 293 | 0.0 | 1.6 | 0.00 | 0.00 | 0.00 | 95 | 1056.2 |
| 20260906030514 | 22 | 5 | 1.6 | 3.2 | 0.00 | 0.00 | 0.00 | 95 | 1056.0 |
| 20260906030014 | 22 | 244 | 0.0 | 0.0 | 0.00 | 0.00 | 0.00 | 95 | 1056.2 |
| 20260906025514 | 22 | 257 | 0.0 | 0.0 | 0.00 | 0.00 | 0.00 | 94 | 1056.0 |
| 20260906025012 | 22 | 249 | 0.0 | 0.0 | 0.00 | 0.00 | 0.00 | 94 | 1056.0 |
| 20260906024508 | 22 | 222 | 1.6 | 3.2 | 0.00 | 0.00 | 0.00 | 94 | 1056.2 |
| 20260906024008 | 22 | 169 | 0.0 | 0.0 | 0.00 | 0.00 | 0.00 | 95 | 1055.7 |
| 20260906023504 | 22 | 285 | 0.0 | 0.0 | 0.00 | 0.00 | 0.00 | 95 | 1055.9 |
| 20260906022959 | 22 | 228 | 0.0 | 0.0 | 0.00 | 0.00 | 0.00 | 95 | 1055.9 |
| 20260906022454 | 22 | 220 | 0.0 | 0.0 | 0.00 | 0.00 | 0.00 | 95 | 1056.0 |
| 20260906021949 | 22 | 299 | 0.0 | 0.0 | 0.00 | 0.00 | 0.00 | 95 | 1055.7 |
| 20260906021444 | 22 | 227 | 0.0 | 0.0 | 0.00 | 0.00 | 0.00 | 94 | 1055.8 |
| 20260906020944 | 22 | 241 | 0.0 | 0.0 | 0.00 | 0.00 | 0.00 | 95 | 1055.9 |
| 20260906020438 | 22 | 175 | 0.0 | 0.0 | 0.00 | 0.00 | 0.00 | 95 | 1055.5 |
| 20260906015932 | 22 | 222 | 0.0 | 0.0 | 0.00 | 0.00 | 0.00 | 96 | 1055.6 |
| 20260906015426 | 22 | 239 | 0.0 | 0.0 | 0.00 | 0.00 | 0.00 | 96 | 1055.4 |
| 20260906014926 | 22 | 252 | 0.0 | 0.0 | 0.00 | 0.00 | 0.00 | 96 | 1055.2 |
| 20260906014426 | 22 | 249 | 0.0 | 0.0 | 0.00 | 0.00 | 0.00 | 96 | 1055.3 |
| 20260906013922 | 22 | 274 | 0.0 | 0.0 | 0.00 | 0.00 | 0.00 | 96 | 1055.2 |
| 20260906013417 | 22 | 248 | 0.0 | 0.0 | 0.00 | 0.00 | 0.00 | 96 | 1055.2 |
| 20260906012913 | 22 | 220 | 0.0 | 0.0 | 0.00 | 0.00 | 0.00 | 96 | 1055.4 |
| 20260906012408 | 22 | 221 | 0.0 | 0.0 | 0.00 | 0.00 | 0.00 | 95 | 1055.3 |
| 20260906011907 | 22 | 237 | 0.0 | 0.0 | 0.00 | 0.00 | 0.00 | 95 | 1054.9 |
| 20260906011402 | 22 | 248 | 0.0 | 0.0 | 0.00 | 0.00 | 0.00 | 95 | 1055.1 |
| 20260906010858 | 23 | 226 | 0.0 | 0.0 | 0.00 | 0.00 | 0.00 | 95 | 1054.8 |
| 20260906010353 | 23 | 248 | 0.0 | 0.0 | 0.00 | 0.00 | 0.00 | 94 | 1054.9 |
| 20260906005849 | 23 | 237 | 0.0 | 0.0 | 0.00 | 0.00 | 0.00 | 94 | 1054.7 |
| 20260906005348 | 23 | 238 | 0.0 | 0.0 | 0.00 | 0.00 | 0.00 | 93 | 1054.6 |
| 20260906004847 | 23 | 252 | 0.0 | 0.0 | 0.00 | 0.00 | 0.00 | 93 | 1054.6 |
| 20260906004342 | 23 | 270 | 0.0 | 0.0 | 0.00 | 0.00 | 0.00 | 93 | 1054.6 |
| 20260906003837 | 23 | 227 | 0.0 | 0.0 | 0.00 | 0.00 | 0.00 | 92 | 1054.6 |
| 20260906003332 | 23 | 239 | 0.0 | 0.0 | 0.00 | 0.00 | 0.00 | 92 | 1054.6 |
| 20260906002828 | 23 | 257 | 0.0 | 0.0 | 0.00 | 0.00 | 0.00 | 92 | 1054.4 |
| 20260906002327 | 23 | 238 | 0.0 | 0.0 | 0.00 | 0.00 | 0.00 | 91 | 1054.7 |
| 20260906001823 | 23 | 234 | 0.0 | 0.0 | 0.00 | 0.00 | 0.00 | 91 | 1054.6 |
| 20260906001318 | 23 | 223 | 0.0 | 0.0 | 0.00 | 0.00 | 0.00 | 91 | 1054.4 |
| 20260906000813 | 23 | 298 | 0.0 | 4.8 | 0.00 | 0.00 | 0.00 | 91 | 1054.4 |
| 20260906000308 | 24 | 187 | 1.6 | 1.6 | 0.00 | 0.00 | 0.00 | 91 | 1054.5 |
| 20260905235803 | 24 | 220 | 0.0 | 0.0 | 0.00 | 0.00 | 0.00 | 91 | 1054.3 |
| 20260905235306 | 24 | 238 | 0.0 | 1.6 | 0.00 | 0.00 | 0.00 | 91 | 1054.6 |
| 20260905234757 | 24 | 188 | 0.0 | 3.2 | 0.00 | 0.00 | 0.00 | 91 | 1054.6 |
| 20260905234252 | 24 | 44 | 1.6 | 3.2 | 0.00 | 0.00 | 0.00 | 91 | 1054.4 |
| 20260905233748 | 24 | 222 | 0.0 | 0.0 | 0.00 | 0.00 | 0.00 | 91 | 1054.4 |
| 20260905233247 | 24 | 231 | 0.0 | 4.8 | 0.00 | 0.00 | 0.00 | 91 | 1054.3 |
| 20260905232742 | 24 | 200 | 1.6 | 3.2 | 0.00 | 0.00 | 0.00 | 91 | 1054.3 |
| 20260905232238 | 24 | 139 | 3.2 | 3.2 | 0.00 | 0.00 | 0.00 | 91 | 1054.3 |
| 20260905231734 | 25 | 237 | 1.6 | 1.6 | 0.00 | 0.00 | 0.00 | 90 | 1054.4 |
| 20260905231229 | 25 | 135 | 0.0 | 3.2 | 0.00 | 0.00 | 0.00 | 90 | 1054.3 |
| 20260905230725 | 25 | 330 | 0.0 | 1.6 | 0.00 | 0.00 | 0.00 | 90 | 1054.2 |
| 20260905230222 | 25 | 47 | 4.8 | 4.8 | 0.00 | 0.00 | 0.00 | 88 | 1054.5 |
| 20260905225722 | 25 | 58 | 1.6 | 3.2 | 0.00 | 0.00 | 0.00 | 88 | 1054.4 |
| 20260905225217 | 25 | 354 | 3.2 | 4.8 | 0.00 | 0.00 | 0.00 | 88 | 1054.4 |
| 20260905224716 | 25 | 327 | 3.2 | 4.8 | 0.00 | 0.00 | 0.00 | 89 | 1054.2 |
| 20260905224212 | 25 | 228 | 0.0 | 3.2 | 0.00 | 0.00 | 0.00 | 89 | 1054.2 |
| 20260905223708 | 24 | 12 | 3.2 | 3.2 | 0.00 | 0.00 | 0.00 | 90 | 1054.1 |
| 20260905223204 | 24 | 279 | 1.6 | 3.2 | 0.00 | 0.00 | 0.00 | 90 | 1054.2 |
| 20260905222700 | 24 | 16 | 1.6 | 6.4 | 0.00 | 0.00 | 0.00 | 90 | 1054.0 |
| 20260905222159 | 24 | 37 | 1.6 | 3.2 | 0.00 | 0.00 | 0.00 | 90 | 1054.1 |
| 20260905221655 | 24 | 77 | 3.2 | 4.8 | 0.00 | 0.00 | 0.00 | 90 | 1054.0 |
| 20260905221152 | 24 | 84 | 3.2 | 3.2 | 0.00 | 0.00 | 0.00 | 90 | 1053.9 |
| 20260905220647 | 24 | 71 | 4.8 | 6.4 | 0.00 | 0.00 | 0.00 | 89 | 1053.7 |
| 20260905220143 | 24 | 14 | 3.2 | 4.8 | 0.00 | 0.00 | 0.00 | 90 | 1053.8 |
| 20260905215642 | 24 | 51 | 6.4 | 6.4 | 0.00 | 0.00 | 0.00 | 89 | 1054.0 |
| 20260905215139 | 24 | 91 | 4.8 | 9.7 | 0.00 | 0.00 | 0.00 | 89 | 1054.0 |
| 20260905214635 | 24 | 343 | 3.2 | 4.8 | 0.00 | 0.00 | 0.00 | 89 | 1054.1 |
| 20260905214135 | 24 | 236 | 0.0 | 1.6 | 0.00 | 0.00 | 0.00 | 90 | 1054.0 |
| 20260905213630 | 24 | 63 | 3.2 | 4.8 | 0.00 | 0.00 | 0.00 | 89 | 1054.0 |
| 20260905213125 | 23 | 79 | 3.2 | 6.4 | 0.00 | 0.00 | 0.00 | 89 | 1054.1 |
| 20260905212620 | 24 | 41 | 6.4 | 9.7 | 0.00 | 0.00 | 0.00 | 89 | 1054.1 |
| 20260905212114 | 24 | 46 | 4.8 | 9.7 | 0.00 | 0.00 | 0.00 | 88 | 1054.2 |
| 20260905211609 | 24 | 254 | 3.2 | 4.8 | 0.00 | 0.00 | 0.00 | 88 | 1054.3 |
| 20260905211105 | 24 | 259 | 1.6 | 1.6 | 0.00 | 0.00 | 0.00 | 88 | 1054.2 |
| 20260905210602 | 24 | 47 | 3.2 | 9.7 | 0.00 | 0.00 | 0.00 | 88 | 1054.3 |
| 20260905210055 | 24 | 197 | 4.8 | 9.7 | 0.00 | 0.00 | 0.00 | 89 | 1054.4 |
| 20260905205554 | 24 | 66 | 3.2 | 11.3 | 0.00 | 0.00 | 0.00 | 88 | 1054.3 |
| 20260905205049 | 24 | 67 | 3.2 | 6.4 | 0.00 | 0.00 | 0.00 | 88 | 1054.3 |
| 20260905204549 | 24 | 245 | 0.0 | 4.8 | 0.00 | 0.00 | 0.00 | 88 | 1054.5 |
| 20260905204044 | 24 | 79 | 3.2 | 9.7 | 0.00 | 0.00 | 0.00 | 87 | 1054.4 |
| 20260905203543 | 24 | 213 | 1.6 | 12.9 | 0.00 | 0.00 | 0.00 | 87 | 1054.2 |
| 20260905203039 | 24 | 71 | 3.2 | 12.9 | 0.00 | 0.00 | 0.00 | 87 | 1054.1 |
| 20260905202534 | 25 | 66 | 6.4 | 14.5 | 0.00 | 0.00 | 0.00 | 87 | 1054.0 |
| 20260905202030 | 25 | 23 | 6.4 | 12.9 | 0.00 | 0.00 | 0.00 | 87 | 1053.8 |
| 20260905201525 | 25 | 41 | 4.8 | 14.5 | 0.00 | 0.00 | 0.00 | 87 | 1054.0 |
| 20260905201024 | 25 | 51 | 4.8 | 6.4 | 0.00 | 0.00 | 0.00 | 86 | 1054.3 |
| 20260905200520 | 26 | 78 | 3.2 | 9.7 | 0.00 | 0.00 | 0.00 | 86 | 1054.2 |
| 20260905200014 | 26 | 161 | 3.2 | 16.1 | 0.00 | 0.00 | 0.00 | 86 | 1054.1 |
| 20260905195509 | 26 | 74 | 3.2 | 9.7 | 0.00 | 0.00 | 0.00 | 86 | 1054.1 |
| 20260905195004 | 26 | 57 | 8.0 | 12.9 | 0.00 | 0.00 | 0.00 | 85 | 1054.3 |
| 20260905194504 | 26 | 100 | 9.7 | 14.5 | 0.00 | 0.00 | 0.00 | 85 | 1054.1 |
| 20260905194004 | 26 | 52 | 9.7 | 14.5 | 0.00 | 0.00 | 0.00 | 87 | 1053.7 |
| 20260905193504 | 26 | 23 | 14.5 | 20.9 | 0.00 | 0.00 | 0.00 | 87 | 1053.9 |
| 20260905192959 | 26 | 58 | 1.6 | 11.3 | 0.00 | 0.00 | 0.00 | 86 | 1053.9 |
| 20260905192454 | 26 | 48 | 4.8 | 16.1 | 0.00 | 0.00 | 0.00 | 87 | 1053.9 |
| 20260905191950 | 26 | 139 | 3.2 | 14.5 | 0.00 | 0.00 | 0.00 | 88 | 1053.8 |
| 20260905191449 | 26 | 341 | 6.4 | 14.5 | 0.00 | 0.00 | 0.00 | 87 | 1054.1 |
| 20260905190948 | 26 | 37 | 6.4 | 11.3 | 0.00 | 0.00 | 0.00 | 87 | 1054.6 |
| 20260905190447 | 26 | 92 | 4.8 | 6.4 | 0.00 | 0.00 | 0.00 | 87 | 1054.9 |
| 20260905185945 | 26 | 68 | 1.6 | 9.7 | 0.00 | 0.00 | 0.00 | 87 | 1054.9 |
| 20260905185441 | 26 | 89 | 3.2 | 6.4 | 0.00 | 0.00 | 0.00 | 87 | 1055.3 |
| 20260905184939 | 26 | 51 | 1.6 | 4.8 | 0.00 | 0.00 | 0.00 | 87 | 1055.4 |
| 20260905184434 | 26 | 139 | 0.0 | 3.2 | 0.00 | 0.00 | 0.00 | 88 | 1055.6 |
| 20260905183933 | 25 | 94 | 6.4 | 9.7 | 0.00 | 0.00 | 0.00 | 88 | 1055.7 |
| 20260905183422 | 25 | 72 | 3.2 | 9.7 | 0.00 | 0.00 | 0.00 | 89 | 1055.8 |
| 20260905182918 | 25 | 10 | 1.6 | 4.8 | 0.00 | 0.00 | 0.00 | 90 | 1055.9 |
| 20260905182416 | 25 | 94 | 0.0 | 4.8 | 0.00 | 0.00 | 0.00 | 90 | 1055.9 |
| 20260905181912 | 25 | 61 | 3.2 | 3.2 | 0.00 | 0.00 | 0.00 | 90 | 1056.1 |
| 20260905181406 | 25 | 66 | 6.4 | 9.7 | 0.00 | 0.00 | 0.00 | 90 | 1056.0 |
| 20260905180906 | 25 | 14 | 1.6 | 3.2 | 0.00 | 0.00 | 0.00 | 91 | 1056.0 |
| 20260905180401 | 25 | 276 | 1.6 | 3.2 | 0.00 | 0.00 | 0.00 | 91 | 1056.1 |
| 20260905175901 | 25 | 72 | 1.6 | 4.8 | 0.00 | 0.00 | 0.00 | 92 | 1056.2 |
| 20260905175400 | 25 | 236 | 0.0 | 4.8 | 0.00 | 0.00 | 0.00 | 93 | 1056.2 |
| 20260905174855 | 24 | 252 | 1.6 | 3.2 | 0.00 | 0.00 | 0.00 | 94 | 1056.4 |
| 20260905174351 | 24 | 68 | 3.2 | 4.8 | 0.00 | 0.00 | 0.00 | 94 | 1056.4 |
| 20260905173847 | 25 | 246 | 1.6 | 3.2 | 0.00 | 0.00 | 0.00 | 91 | 1056.7 |
| 20260905173343 | 25 | 255 | 1.6 | 3.2 | 0.00 | 0.00 | 0.00 | 91 | 1056.5 |
| 20260905172838 | 25 | 29 | 1.6 | 3.2 | 0.00 | 0.00 | 0.00 | 91 | 1056.3 |
| 20260905172335 | 25 | 249 | 0.0 | 3.2 | 0.00 | 0.00 | 0.00 | 92 | 1056.2 |
| 20260905171832 | 25 | 335 | 3.2 | 6.4 | 0.00 | 0.00 | 0.00 | 92 | 1056.2 |
| 20260905171329 | 24 | 193 | 3.2 | 6.4 | 0.00 | 0.00 | 0.00 | 94 | 1056.4 |
| 20260905170825 | 24 | 61 | 4.8 | 6.4 | 0.00 | 0.00 | 0.00 | 94 | 1056.3 |
| 20260905170320 | 23 | 247 | 0.0 | 1.6 | 0.00 | 0.00 | 0.00 | 95 | 1056.3 |
| 20260905165819 | 23 | 246 | 0.0 | 3.2 | 0.00 | 0.00 | 0.00 | 96 | 1056.5 |
| 20260905165310 | 23 | 39 | 3.2 | 4.8 | 0.00 | 0.00 | 0.00 | 96 | 1056.5 |
| 20260905164809 | 23 | 274 | 0.0 | 1.6 | 0.00 | 0.00 | 0.00 | 97 | 1056.9 |
| 20260905164304 | 23 | 178 | 1.6 | 1.6 | 0.00 | 0.00 | 0.00 | 96 | 1057.0 |
| 20260905163759 | 23 | 281 | 1.6 | 3.2 | 0.00 | 0.00 | 0.00 | 97 | 1056.7 |
| 20260905163255 | 23 | 225 | 0.0 | 1.6 | 0.00 | 0.00 | 0.00 | 97 | 1056.5 |
| 20260905162751 | 23 | 76 | 3.2 | 4.8 | 0.00 | 0.00 | 0.00 | 97 | 1056.6 |
| 20260905162251 | 23 | 50 | 3.2 | 3.2 | 0.00 | 0.00 | 0.00 | 98 | 1056.4 |
| 20260905161745 | 23 | 286 | 1.6 | 3.2 | 0.00 | 0.00 | 0.00 | 98 | 1056.3 |
| 20260905161244 | 23 | 63 | 4.8 | 9.7 | 0.00 | 0.00 | 0.00 | 99 | 1056.3 |
| 20260905160743 | 23 | 107 | 3.2 | 3.2 | 0.00 | 0.00 | 0.00 | 99 | 1056.2 |
| 20260905160243 | 23 | 233 | 1.6 | 1.6 | 0.00 | 0.00 | 0.00 | 99 | 1056.0 |
| 20260905155738 | 23 | 55 | 3.2 | 4.8 | 0.00 | 0.00 | 0.00 | 99 | 1056.1 |
| 20260905155237 | 23 | 14 | 1.6 | 3.2 | 0.00 | 0.00 | 0.00 | 99 | 1055.9 |
| 20260905154731 | 23 | 261 | 0.0 | 1.6 | 0.00 | 0.00 | 0.00 | 99 | 1056.2 |
| 20260905154228 | 23 | 167 | 0.0 | 1.6 | 0.00 | 0.00 | 0.00 | 99 | 1055.9 |
| 20260905153723 | 23 | 24 | 3.2 | 4.8 | 0.00 | 0.00 | 0.00 | 99 | 1056.0 |
| 20260905153219 | 22 | 265 | 0.0 | 4.8 | 0.00 | 0.00 | 0.00 | 99 | 1056.0 |
| 20260905152718 | 22 | 249 | 0.0 | 3.2 | 0.00 | 0.00 | 0.00 | 99 | 1056.0 |
| 20260905152213 | 22 | 328 | 1.6 | 4.8 | 0.00 | 0.00 | 0.00 | 99 | 1056.0 |
| 20260905151712 | 22 | 234 | 1.6 | 1.6 | 0.00 | 0.00 | 0.00 | 99 | 1055.8 |
| 20260905151209 | 22 | 214 | 0.0 | 3.2 | 0.00 | 0.00 | 0.00 | 99 | 1055.7 |
| 20260905150703 | 22 | 237 | 0.0 | 1.6 | 0.00 | 0.00 | 0.00 | 99 | 1055.8 |
| 20260905150202 | 22 | 344 | 3.2 | 3.2 | 0.00 | 0.00 | 0.00 | 99 | 1055.6 |